Probability
8 7 7 7 6 8 9 9 9 9 8 5 4 3 3 3 2 1 0 1 3 4 3 1 1 0 0 0 0 0 0 0 0 0 0 0 0 0 0 0 0 0 0
6 6 6 6 7 9 9 9 9 9 8 6 4 3 3 3 2 1 0 1 3 5 4 3 2 1 0 0 0 0 0 0 0 0 0 0 0 0 0 0 0 0 0
4 4 4 5 7 10 10 8 8 9 8 7 6 5 5 5 3 1 0 1 2 4 5 5 4 2 0 0 0 0 0 0 0 0 0 0 0 0 0 0 0 0 0
4 3 3 4 6 9 10 8 8 9 9 9 9 8 7 6 4 2 1 0 1 3 4 4 3 2 0 0 0 0 0 0 0 0 1 1 0 0 0 0 0 0 0
7 4 3 4 5 8 9 8 8 10 11 12 12 10 7 4 3 3 1 0 1 2 3 3 3 2 1 1 1 1 1 1 1 1 2 2 1 0 0 0 0 0 0
7 5 3 4 6 7 9 9 9 11 13 14 14 11 7 4 3 3 2 1 1 1 3 3 3 3 3 2 2 2 2 2 2 2 3 2 1 0 0 0 0 0 0
5 4 4 5 7 9 9 10 10 11 14 15 15 13 9 6 5 5 4 2 2 2 2 3 3 3 3 4 3 3 2 1 1 1 2 2 1 0 0 1 0 0 0
5 4 4 5 8 9 10 11 11 13 15 15 12 11 10 9 7 6 6 4 3 2 1 2 3 3 3 4 3 3 3 2 1 1 1 1 0 0 0 0 0 0 0
5 4 3 4 7 10 11 11 12 14 15 14 10 8 9 9 8 8 8 6 4 3 2 2 4 4 3 3 3 4 4 3 2 2 1 0 0 0 0 0 0 0 0
6 4 3 4 7 10 11 11 11 12 12 10 9 9 9 9 9 8 7 6 4 3 2 4 5 4 4 3 3 3 4 4 3 2 1 0 0 0 0 0 0 0 0
8 6 4 5 7 10 11 11 11 10 8 7 9 11 11 10 9 7 6 6 5 4 4 5 5 6 6 5 2 1 2 2 1 1 1 0 0 0 0 0 0 0 0
8 7 6 7 10 11 13 14 13 10 7 6 9 12 13 11 9 6 6 7 7 6 6 6 6 7 7 4 1 1 1 0 0 0 0 0 0 0 0 0 0 0 0
7 7 8 10 11 12 14 15 15 12 10 10 12 13 13 11 8 6 7 8 8 8 8 8 8 7 5 2 1 1 1 0 0 0 0 0 1 1 1 1 0 0 0
7 8 10 11 10 12 13 15 15 15 15 16 17 16 14 11 8 6 6 7 6 7 8 8 7 5 3 2 2 2 2 1 0 0 0 0 1 2 2 2 1 1 0
9 10 13 14 13 13 14 14 14 16 19 20 18 15 13 10 7 6 5 5 5 6 7 7 5 3 2 2 2 2 2 1 0 0 0 0 1 1 1 2 2 1 1
12 13 15 16 16 15 14 13 14 17 20 20 16 12 10 9 7 6 5 6 6 7 7 5 3 2 1 1 1 1 1 0 0 0 0 0 0 0 0 1 1 1 0
16 16 15 16 17 17 15 13 15 19 20 19 14 11 10 10 9 7 6 6 6 8 8 6 3 2 1 0 0 0 0 0 0 0 0 0 0 0 0 0 0 0 0
17 16 16 17 18 18 18 17 18 20 20 17 13 12 13 13 11 9 6 5 6 6 7 6 4 3 2 1 0 0 0 0 0 0 0 0 0 0 0 0 0 0 0
17 16 17 19 19 20 21 21 21 21 20 17 13 12 13 13 12 11 9 7 6 6 5 4 4 4 4 2 0 0 0 0 0 0 0 0 0 0 0 0 0 0 0
17 16 17 19 20 22 24 23 21 21 20 17 15 14 14 13 12 13 12 10 8 6 5 3 3 4 5 3 1 0 0 0 0 0 0 0 0 0 0 0 0 1 1
19 18 17 16 18 22 25 23 21 20 18 17 17 18 17 14 13 13 14 13 10 8 6 4 2 3 3 2 1 0 0 0 0 0 1 1 1 0 0 0 0 1 2
20 19 16 14 14 18 24 24 21 17 15 14 16 18 17 15 13 12 13 13 11 8 7 4 2 1 1 1 0 0 0 0 1 1 2 2 1 0 0 0 0 1 1
19 18 16 13 13 16 22 24 20 15 12 12 13 14 14 12 11 11 11 11 10 9 8 6 3 1 0 0 0 0 0 0 0 1 1 1 1 0 0 0 0 0 0
17 17 17 15 15 16 19 20 19 16 14 11 11 11 11 10 8 7 7 8 10 9 8 6 3 1 0 0 0 0 0 0 0 0 0 0 0 0 0 0 0 0 0
16 16 16 15 15 15 14 15 17 17 14 11 10 11 11 9 7 5 5 6 7 7 5 4 2 1 0 0 0 0 0 0 0 0 0 0 0 0 0 0 0 0 0
16 16 16 14 14 13 11 12 16 16 12 8 10 11 10 9 7 5 4 4 4 4 3 2 2 2 1 0 0 0 0 0 0 0 0 0 0 0 0 0 0 0 0
Wind_Speed
6 6 7 8 7 6 5 5 5 4 3 2 2 1 1 0 1 0 1 1 1 2 2 1 0 1 1 1 1 1 1 1 0 1 2 2 1 0 1 1 2 3 3
5 6 6 6 7 7 6 5 5 5 4 3 2 2 2 1 1 0 1 1 1 1 1 1 1 1 1 1 1 1 1 1 0 1 1 2 3 2 1 0 1 2 1
8 7 7 6 6 6 6 6 4 4 3 3 2 2 2 2 1 1 1 1 1 1 1 1 1 1 1 1 1 1 1 1 1 1 2 2 2 2 2 1 1 1 1
7 6 7 7 7 6 5 4 4 4 3 3 3 4 3 2 1 1 1 1 0 1 1 1 1 1 1 1 1 1 1 1 1 1 0 2 3 2 1 2 1 0 1
9 9 8 7 7 7 5 4 4 3 3 3 4 3 2 1 1 0 0 1 1 0 0 0 1 0 0 0 0 1 1 1 1 0 1 0 0 1 2 1 2 1 1
9 8 7 6 5 5 5 4 4 3 3 3 3 3 3 2 2 1 0 0 1 1 1 0 0 0 0 0 1 1 1 1 1 0 0 0 0 1 2 2 1 1 2
9 8 8 7 6 6 6 5 5 3 3 3 3 3 3 3 3 2 1 1 0 1 1 0 0 0 1 1 1 1 1 1 1 1 1 1 1 1 1 2 1 1 1
8 9 9 9 8 8 7 6 5 3 3 3 2 1 2 1 1 1 1 1 1 1 1 0 0 0 0 0 1 1 0 0 0 1 1 1 1 1 1 2 2 1 1
9 9 8 8 8 8 7 7 6 4 4 3 2 1 1 1 1 1 1 1 1 1 1 1 1 1 1 0 1 0 0 0 0 1 1 0 1 0 0 1 2 3 2
8 8 8 7 7 7 6 6 6 5 4 4 3 2 2 2 2 1 1 1 2 1 1 1 1 1 1 1 2 1 1 1 0 0 0 1 1 1 1 1 1 2 3
8 8 7 7 7 6 6 6 5 4 4 4 3 3 2 2 2 1 1 1 1 1 1 1 1 1 1 1 1 1 1 1 1 2 1 1 1 1 1 1 1 1 2
7 7 8 7 7 6 6 5 5 5 4 3 3 3 2 2 2 1 1 1 1 1 1 1 1 1 1 1 1 1 1 1 1 1 1 1 1 1 1 1 1 1 1
7 7 7 7 7 7 6 5 5 5 4 3 3 2 2 2 2 2 2 1 2 1 1 1 1 0 0 0 0 1 0 1 1 1 1 0 1 1 1 1 1 1 1
7 7 7 7 7 7 6 6 5 4 4 4 3 3 2 2 2 2 1 2 2 2 1 1 1 1 1 0 0 1 1 1 1 1 1 1 1 1 1 1 1 1 2
7 8 7 6 6 6 5 5 5 4 5 4 3 3 2 2 1 1 1 2 2 2 1 1 1 1 1 0 1 1 1 1 1 1 1 1 1 1 0 1 1 2 2
8 8 8 7 7 6 6 5 5 5 5 5 4 3 2 2 2 2 1 2 2 1 1 2 2 1 0 1 2 2 1 1 1 0 1 1 2 2 2 2 2 3 3
6 8 8 8 7 7 6 6 4 4 4 4 4 3 3 2 2 2 2 2 2 2 2 2 2 1 0 1 1 2 2 1 0 0 0 1 1 2 1 2 3 1 1
8 7 7 7 6 5 5 5 4 4 4 4 4 3 3 3 2 2 2 2 2 2 2 2 2 2 0 0 1 2 1 1 0 0 1 1 1 1 0 1 1 1 2
7 6 6 6 5 5 5 6 4 4 4 4 4 3 3 3 2 2 2 2 2 2 2 2 2 2 2 1 1 2 1 0 1 1 0 1 1 2 0 1 0 1 3
6 5 5 5 5 4 6 6 5 4 4 4 4 3 3 3 2 3 3 2 2 3 2 2 2 3 2 2 2 2 1 0 1 1 2 2 1 2 1 1 1 1 3
6 7 7 5 4 5 6 6 5 4 4 3 3 3 3 3 2 2 2 2 2 2 1 2 2 2 3 3 3 3 2 2 1 1 2 2 3 2 1 1 1 3 2
6 7 7 5 4 4 6 5 4 4 3 3 3 2 2 2 2 2 1 1 2 2 1 1 1 1 2 2 2 3 4 3 2 2 2 2 3 2 2 1 2 2 1
5 5 6 5 4 4 5 5 4 3 4 3 2 2 2 1 2 2 2 1 1 1 1 1 2 1 1 1 1 2 3 4 3 2 3 3 3 2 2 3 3 2 0
4 4 5 5 3 3 3 4 3 3 4 3 2 2 1 1 1 1 2 2 2 2 2 2 3 2 2 2 2 1 1 1 1 2 3 3 3 2 3 3 2 1 2
3 4 5 4 2 2 2 2 3 3 3 2 2 1 1 2 1 1 2 3 3 4 5 4 4 3 3 5 5 3 2 2 2 1 1 1 1 1 2 2 2 2 1
3 4 4 4 3 2 2 2 2 4 4 2 1 1 1 1 1 1 1 2 3 4 5 6 5 4 6 5 5 5 4 3 3 2 1 2 2 2 2 2 2 2 3
Wind_Direction
174 163 160 158 148 149 147 150 147 154 143 135 130 118 113 87 57 67 48 87 122 126 127 127 145 136 139 167 122 92 61 342 34 52 349 330 311 238 224 199 180 194 196
171 174 172 164 159 163 164 159 162 168 162 163 160 149 140 145 134 20 35 69 106 132 147 142 161 149 130 98 74 78 86 321 81 127 94 357 349 347 347 195 183 186 172
174 175 170 174 166 167 170 169 171 168 164 150 124 99 72 46 31 10 355 348 98 120 115 126 133 140 151 171 173 130 141 203 307 144 146 154 227 296 325 298 200 179 181
166 168 166 165 170 171 165 161 158 160 161 150 138 144 143 163 208 212 251 306 23 92 125 105 99 113 148 167 212 139 144 154 248 318 243 182 170 164 298 323 323 262 191
171 174 172 170 173 167 159 151 146 152 154 154 155 151 155 185 198 160 85 0 342 358 130 115 75 80 125 131 121 116 118 143 166 239 284 289 82 145 160 258 310 332 285
174 174 170 161 161 158 154 149 142 151 160 156 156 158 166 170 165 168 141 311 300 316 335 21 88 139 147 153 171 149 127 128 141 181 122 153 179 215 173 195 230 262 289
167 166 166 166 166 162 163 159 156 162 167 158 164 174 176 173 178 186 187 206 258 299 301 307 321 237 213 182 138 119 116 135 138 204 225 210 220 202 174 162 192 216 303
168 169 174 176 175 170 170 166 161 159 159 155 166 178 173 157 168 182 186 210 221 227 237 222 348 309 189 147 117 110 158 120 194 252 235 234 259 202 171 169 159 138 6
172 171 174 176 171 167 171 168 163 162 166 161 156 153 158 155 165 176 176 203 233 220 180 110 62 19 24 43 119 80 3 66 257 261 274 277 300 41 104 150 160 157 161
168 170 174 173 166 160 161 159 162 166 167 162 168 163 174 173 170 151 173 201 216 211 142 96 72 44 46 55 62 41 27 46 310 219 36 21 12 43 49 97 159 155 157
166 170 168 160 151 149 154 154 153 159 169 175 173 164 175 173 160 162 191 196 187 163 139 148 113 73 59 63 67 40 56 62 20 25 60 50 59 64 47 55 76 92 120
161 163 159 149 148 153 155 156 158 164 173 174 170 173 176 169 167 190 211 175 155 151 140 133 125 117 98 95 88 71 74 88 56 36 79 45 75 60 55 73 82 103 128
156 153 150 152 155 157 158 161 165 170 171 162 158 156 160 163 184 212 210 162 139 129 115 118 131 125 106 110 133 164 153 108 92 110 115 123 91 64 55 87 93 102 105
151 148 152 156 158 157 161 167 171 170 163 157 158 168 181 188 197 198 183 157 143 136 136 125 117 103 75 66 74 79 79 66 55 72 93 91 120 178 186 124 118 113 104
147 151 153 152 151 152 159 163 169 172 167 162 170 187 185 171 157 160 171 167 157 160 155 123 116 109 106 80 94 97 99 91 57 25 19 50 76 65 157 159 164 130 119
157 153 150 151 155 160 165 167 176 177 165 165 178 180 162 154 164 191 187 162 166 171 142 147 139 120 101 96 95 106 96 89 91 34 334 358 20 26 32 66 126 143 151
152 156 162 166 169 173 172 174 173 161 154 160 168 168 167 170 192 196 187 186 186 168 159 174 157 154 119 102 105 97 110 90 92 170 359 348 17 27 32 38 43 44 165
162 170 168 167 169 166 160 155 150 147 144 150 163 170 169 183 202 192 188 193 181 174 179 182 177 161 197 154 154 135 111 90 329 247 173 144 331 339 48 64 20 340 306
167 169 167 161 157 156 153 141 138 139 145 162 177 182 175 179 188 194 208 205 186 185 187 190 179 184 243 240 176 147 120 86 295 293 238 184 239 295 237 103 43 334 315
156 150 138 128 145 157 142 135 138 143 164 180 180 181 179 173 185 202 212 203 184 188 181 196 196 191 216 227 201 176 165 205 281 309 310 289 271 285 297 149 166 279 287
139 134 126 132 155 152 138 139 146 170 183 171 162 165 179 180 179 191 203 188 178 171 183 197 216 208 219 230 221 197 177 197 226 264 279 283 283 271 286 216 213 239 251
132 132 132 139 146 144 142 148 170 186 160 149 155 170 182 190 168 169 194 181 168 176 203 194 228 249 237 227 242 218 199 191 196 234 250 264 275 263 279 274 269 279 306
143 139 140 139 142 147 149 161 181 161 144 138 156 178 185 191 173 175 190 193 183 185 208 200 215 240 259 266 250 214 205 206 206 238 253 257 258 254 265 269 278 278 246
147 146 134 135 150 155 148 162 164 150 140 148 169 181 176 193 168 173 180 186 201 198 201 204 211 222 228 244 256 246 227 221 231 265 279 274 260 253 251 266 275 239 218
154 144 140 147 166 148 131 146 148 138 140 157 175 183 191 192 185 198 206 205 219 205 197 208 204 200 226 235 212 195 206 209 219 228 355 355 314 291 287 276 261 249 251
136 135 138 141 161 171 153 156 163 151 147 158 190 207 203 199 185 193 280 273 241 236 218 215 207 217 221 222 212 214 219 220 186 146 196 243 246 247 254 264 270 253 239